Terminal Aerodrome Forecast
Issued by NWS

Home | Current Version | Previous Version | Graphics & Text | Print | Product List | Glossary On
Versions: 1 2 3 4 5 6 7 8 9 10 11 12 13 14 15 16 17 18 19 20 21 22 23 24 25 26 27 28 29 30 31 32 33 34 35 36 37 38 39 40 41 42 43 44 45 46 47 48 49 50
000
FTUS43 KLOT 282159 AAB
TAFGYY
TAF AMD
KGYY 282159Z 2822/2918 12006KT P6SM OVC120 PROB30 2909/2912 5SM
      -SHRA OVC050
     FM291200 14006KT P6SM VCSH OVC040
     FM291500 13007KT 6SM -SHRA OVC040=

USA.gov is the U.S. government's official web portal to all federal, state and local government web resources and services.